TimeEST,TemperatureF,Dew PointF,Humidity,Sea Level PressureIn,VisibilityMPH,Wind Direction,Wind SpeedMPH,Gust SpeedMPH,PrecipitationIn,Events,Conditions,WindDirDegrees,DateUTC
12:13 AM,26.6,24.8,93,29.82,2.5,Calm,Calm,-,0.00,Snow,Light Snow,0,2013-02-24 05:13:00
12:30 AM,24.8,23.0,93,29.82,5.0,Calm,Calm,-,0.00,,Overcast,0,2013-02-24 05:30:00
12:54 AM,25.0,21.9,88,29.85,6.0,Calm,Calm,-,0.00,,Overcast,0,2013-02-24 05:54:00
1:54 AM,25.0,23.0,92,29.85,10.0,WSW,3.5,-,N/A,,Overcast,250,2013-02-24 06:54:00
2:46 AM,24.8,21.2,86,29.82,10.0,SW,3.5,-,N/A,,Overcast,230,2013-02-24 07:46:00
2:54 AM,25.0,21.9,88,29.85,10.0,WSW,3.5,-,N/A,,Overcast,240,2013-02-24 07:54:00
3:54 AM,25.0,21.9,88,29.86,10.0,WSW,3.5,-,N/A,,Mostly Cloudy,240,2013-02-24 08:54:00
4:54 AM,24.1,21.9,91,29.87,7.0,Calm,Calm,-,N/A,,Overcast,0,2013-02-24 09:54:00
5:54 AM,23.0,19.9,88,29.89,7.0,Calm,Calm,-,0.00,,Mostly Cloudy,0,2013-02-24 10:54:00
6:54 AM,19.9,17.1,89,29.91,6.0,Calm,Calm,-,N/A,,Scattered Clouds,0,2013-02-24 11:54:00
7:09 AM,15.8,12.2,86,29.88,1.8,Calm,Calm,-,N/A,,Clear,0,2013-02-24 12:09:00
7:20 AM,17.6,15.8,93,29.88,3.0,WSW,3.5,-,N/A,,Clear,250,2013-02-24 12:20:00
7:54 AM,19.0,18.0,96,29.94,4.0,West,4.6,-,N/A,,Clear,260,2013-02-24 12:54:00
8:16 AM,21.2,19.4,93,29.91,5.0,West,4.6,-,N/A,,Scattered Clouds,270,2013-02-24 13:16:00
8:43 AM,23.0,21.2,93,29.91,6.0,WNW,6.9,-,N/A,,Mostly Cloudy,300,2013-02-24 13:43:00
8:54 AM,23.0,21.9,96,29.95,7.0,Variable,6.9,-,N/A,,Mostly Cloudy,0,2013-02-24 13:54:00
9:54 AM,25.0,21.9,88,29.97,10.0,NW,6.9,-,N/A,,Overcast,310,2013-02-24 14:54:00
10:37 AM,28.4,23.0,80,29.94,10.0,West,9.2,-,N/A,,Overcast,270,2013-02-24 15:37:00
10:54 AM,28.9,23.0,78,29.98,10.0,Variable,5.8,-,N/A,,Overcast,0,2013-02-24 15:54:00
11:54 AM,30.9,24.1,76,29.99,10.0,West,5.8,-,N/A,,Overcast,280,2013-02-24 16:54:00
12:01 PM,30.2,24.8,80,29.96,10.0,WNW,5.8,-,N/A,,Overcast,300,2013-02-24 17:01:00
12:42 PM,32.0,24.8,75,29.97,10.0,NW,10.4,17.3,N/A,,Overcast,310,2013-02-24 17:42:00
12:54 PM,32.0,24.1,73,30.00,10.0,NW,9.2,-,N/A,,Overcast,310,2013-02-24 17:54:00
1:54 PM,34.0,23.0,64,30.00,10.0,NW,6.9,16.1,N/A,,Overcast,310,2013-02-24 18:54:00
2:26 PM,33.8,23.0,65,29.97,10.0,NW,10.4,-,N/A,,Mostly Cloudy,320,2013-02-24 19:26:00
2:54 PM,35.1,21.9,59,30.01,10.0,WNW,9.2,17.3,N/A,,Overcast,300,2013-02-24 19:54:00
3:54 PM,36.0,19.9,52,30.02,10.0,WNW,9.2,17.3,N/A,,Mostly Cloudy,290,2013-02-24 20:54:00
4:54 PM,34.0,19.9,56,30.05,10.0,WNW,5.8,-,N/A,,Overcast,290,2013-02-24 21:54:00
5:54 PM,34.0,19.9,56,30.07,10.0,NW,5.8,-,N/A,,Overcast,320,2013-02-24 22:54:00
6:54 PM,33.1,19.9,59,30.09,10.0,NW,4.6,-,N/A,,Overcast,320,2013-02-24 23:54:00
7:54 PM,32.0,21.0,64,30.12,10.0,Calm,Calm,-,N/A,,Overcast,0,2013-02-25 00:54:00
8:54 PM,32.0,21.9,66,30.13,10.0,WNW,3.5,-,N/A,,Overcast,300,2013-02-25 01:54:00
9:54 PM,30.9,23.0,72,30.13,10.0,WNW,3.5,-,N/A,,Overcast,290,2013-02-25 02:54:00
10:54 PM,30.9,23.0,72,30.14,10.0,Calm,Calm,-,N/A,,Overcast,0,2013-02-25 03:54:00
11:54 PM,30.9,24.1,76,30.14,10.0,Calm,Calm,-,N/A,,Overcast,0,2013-02-25 04:54:00